Change the Weather History Date:

Friday, January 17, 2014

  Actual Average (KHOT) Record (KHOT)
Temperature  
Mean Temperature 33 °F -  
Max Temperature 43 °F 51 °F 78 °F (1952)
Min Temperature 21 °F 29 °F 4 °F (1982)
Degree Days  
Heating Degree Days 32    
Moisture  
Dew Point 9 °F    
Average Humidity 36    
Maximum Humidity 75    
Minimum Humidity 19    
Precipitation  
Precipitation 0.00 in - - ()
Sea Level Pressure  
Sea Level Pressure 30.15 in    
Wind  
Wind Speed 12 mph (WNW)    
Max Wind Speed 22 mph    
Max Gust Speed 31 mph    
Visibility 10 miles    
Events      
Averages and records for this station are not official NWS values.
T = Trace of Precipitation, MM = Missing Value Source: NWS Daily Summary

Daily Weather History Graph

Daily Weather History Graph

Search for Another Location

Airport or City:

Trip Planner

Search our weather history database for the weather conditions in past years. The results will help you decide how hot, cold, wet, or windy it might be!

Date:

Astronomy

Jan. 17, 2014 Rise Set
Actual Time 7:19 AM CST 5:25 PM CST
Civil Twilight 6:52 AM CST 5:52 PM CST
Nautical Twilight 6:21 AM CST 6:24 PM CST
Astronomical Twilight 5:50 AM CST 6:54 PM CST
Moon 7:07 PM CST (1/17) 7:52 AM CST (1/17)
Length of Visible Light 11h 00m
Length of Day
10h 05m
Full, 98% of the Moon is Illuminated
Jan 17
Full
Jan 23
Last Quarter
Jan 30
New
Feb 6
First Quarter
Feb 14
Full

Hourly Weather History & Observations

Time (CST) Temp. Windchill Dew Point Humidity Pressure Visibility Wind Dir Wind Speed Gust Speed Precip Events Conditions
12:53 AM 43.0 °F 38.2 °F 15.1 °F 32% 30.01 in 10.0 mi WNW 8.1 mph - N/A   Clear
1:53 AM 42.1 °F 35.7 °F 15.1 °F 34% 30.03 in 10.0 mi WNW 11.5 mph 19.6 mph N/A   Clear
2:53 AM 41.0 °F 32.2 °F 15.1 °F 35% 30.05 in 10.0 mi WNW 18.4 mph 28.8 mph N/A   Clear
3:53 AM 37.9 °F 29.6 °F 14.0 °F 38% 30.08 in 10.0 mi WNW 13.8 mph 24.2 mph N/A   Clear
4:53 AM 36.0 °F 26.7 °F 9.0 °F 33% 30.10 in 10.0 mi WNW 15.0 mph 25.3 mph N/A   Clear
5:53 AM 34.0 °F 24.2 °F 9.0 °F 35% 30.12 in 10.0 mi WNW 15.0 mph 31.1 mph N/A   Clear
6:53 AM 32.0 °F 22.1 °F 8.1 °F 37% 30.15 in 10.0 mi West 13.8 mph 18.4 mph N/A   Clear
7:53 AM 32.0 °F 24.2 °F 10.0 °F 40% 30.16 in 10.0 mi WNW 9.2 mph - N/A   Clear
8:53 AM 33.1 °F 21.2 °F 6.1 °F 32% 30.18 in 10.0 mi NW 20.7 mph 25.3 mph N/A   Clear
9:53 AM 35.1 °F 24.8 °F 3.0 °F 26% 30.20 in 10.0 mi WNW 17.3 mph 26.5 mph N/A   Clear
10:53 AM 36.0 °F 25.3 °F 5.0 °F 27% 30.21 in 10.0 mi West 19.6 mph 27.6 mph N/A   Clear
11:53 AM 37.9 °F 27.3 °F 3.0 °F 23% 30.19 in 10.0 mi WNW 21.9 mph 28.8 mph N/A   Clear
12:53 PM 39.9 °F 31.4 °F 3.0 °F 21% 30.17 in 10.0 mi WNW 16.1 mph 27.6 mph N/A   Clear
1:53 PM 41.0 °F 33.1 °F 1.9 °F 20% 30.17 in 10.0 mi West 15.0 mph 25.3 mph N/A   Clear
2:53 PM 43.0 °F 35.1 °F 3.9 °F 20% 30.17 in 10.0 mi West 17.3 mph 27.6 mph N/A   Clear
3:53 PM 43.0 °F 35.4 °F 3.0 °F 19% 30.17 in 10.0 mi West 16.1 mph 27.6 mph N/A   Clear
4:53 PM 41.0 °F 34.3 °F 3.0 °F 21% 30.18 in 10.0 mi West 11.5 mph 23.0 mph N/A   Clear
5:53 PM 39.0 °F 33.4 °F 6.1 °F 26% 30.19 in 10.0 mi WNW 8.1 mph - N/A   Clear
6:53 PM 35.1 °F 31.0 °F 9.0 °F 34% 30.20 in 10.0 mi WNW 4.6 mph - N/A   Clear
7:53 PM 28.0 °F - 14.0 °F 56% 30.20 in 10.0 mi Calm Calm - N/A   Clear
8:53 PM 26.1 °F - 12.9 °F 58% 30.20 in 10.0 mi Calm Calm - N/A   Clear
9:53 PM 24.1 °F - 14.0 °F 65% 30.20 in 10.0 mi Calm Calm - N/A   Clear
10:53 PM 23.0 °F - 14.0 °F 68% 30.20 in 10.0 mi Calm Calm - N/A   Clear
11:53 PM 21.9 °F - 15.1 °F 75% 30.18 in 10.0 mi Calm Calm - N/A   Clear